Regional Weather Roundup
Issued by NWS

Home | Current Version | Previous Version | Text Only | Print | Product List | Glossary On
Versions: 1 2 3 4 5 6 7 8 9 10 11 12 13 14 15 16 17 18 19 20 21 22 23 24 25 26 27 28 29 30 31 32 33 34 35 36 37 38 39 40 41 42 43 44 45 46 47 48 49 50
000
ASUS45 KBOU 300210
RWRCO

WEATHER ROUNDUP FOR COLORADO
NATIONAL WEATHER SERVICE DENVER/BOULDER CO
800 PM MDT WED JUL 29 2015

NOTE: "FAIR" INDICATES FEW OR NO CLOUDS BELOW 12000 FEET WITH NO
SIGNIFICANT WEATHER AND/OR OBSTRUCTIONS TO VISIBILITY.

COZ001>005-013-030-031-300300-
...NORTHWEST COLORADO...

CITY           SKY/WX    TMP DP  RH WIND       PRES   REMARKS
CRAIG          PTCLDY    77  24  14 NW5       30.30R
HAYDEN         CLEAR     77  18  10 NW5       30.33R
MEEKER         PTCLDY    79  20  11 NW6       30.31R
MOUNT WERNER   NOT AVBL
STEAMBOAT SPGS CLEAR     76  26  15 CALM      30.36R
WALDEN         CLEAR     70  25  18 N12       30.44R
$$

COZ006>008-011-300300-
...WEST CENTRAL VALLEYS...

CITY           SKY/WX    TMP DP  RH WIND       PRES   REMARKS
GRAND JUNCTION PTCLDY    87  24  10 CALM      30.15R
MONTROSE       MOCLDY    81  36  19 NW5       30.25R
EAGLE          PTCLDY    81  30  16 SW6       30.32R
RIFLE          PTCLDY    84  26  12 N6        30.22R
DELTA          MOCLDY    89  17   7 N5        30.18S
NUCLA          MOCLDY    81  27  13 N3        30.28R
$$

COZ017>023-064>068-300300-
...SOUTHWEST COLORADO...

CITY           SKY/WX    TMP DP  RH WIND       PRES   REMARKS
DURANGO        CLOUDY    69  48  47 E6        30.35R
CORTEZ         CLEAR     79  44  28 S6        30.26R
PAGOSA SPRINGS CLOUDY    67  43  41 CALM      30.44R
TELLURIDE      MOCLDY    68  30  23 CALM      30.52R
WOLF CREEK PAS NOT AVBL
$$

COZ009-010-012-014-032>034-037-058>063-300300-
...CENTRAL COLORADO...

CITY           SKY/WX    TMP DP  RH WIND       PRES   REMARKS
ASPEN          PTCLDY    64  37  36 S3        30.40R
BUENA VISTA    CLOUDY    68  49  49 E9        30.44R
COPPER MTN     PTCLDY    59  21  23 W20       30.75R
BERTHOUD PASS  FAIR      45  34  65 S9        30.81R
COTTONWOOD PAS MOCLDY    63  46  55 SE23G31   30.54F
GUNNISON       PTCLDY    72  28  20 W5        30.41R
KREMMLING      PTCLDY    73  18  12 CALM      30.40R
LEADVILLE      MOCLDY    64  24  21 NW10      30.56R
MONARCH PASS   MOCLDY    50  45  81 E17       30.83R
SALIDA         NOT AVBL
SUNLIGHT       MOCLDY    59  30  33 CALM      30.68S
WILKERSON PASS LGT RAIN  50  45  81 S8G16     30.71S
$$

COZ069>075-300300-
...SAN LUIS VALLEY/SANGRE DE CRISTO MOUNTAINS...

CITY           SKY/WX    TMP DP  RH WIND       PRES   REMARKS
ALAMOSA        CLOUDY    61  51  70 S14       30.45R
LA VETA PASS   CLOUDY    52  46  82 MISG      30.65R
SAGUACHE       MOCLDY    64  52  63 S14G25    30.47R
$$

COZ035-036-038>040-300300-
...NORTHERN COLORADO FRONT RANGE...

CITY           SKY/WX    TMP DP  RH WIND       PRES   REMARKS
DENVER INTL AP MOCLDY    77  48  35 S15       30.26R
DMNS CITY PARK   N/A     78  49  35 SE5G58    30.25S
AURORA         NOT AVBL
FRONT RANGE AP MOCLDY    75  46  35 SE10      30.29R
ERIE MUNI ARPT MOCLDY    80  47  31 S12       30.23R
BOULDER MUN AP MOCLDY    79  46  31 S8        30.24R
CENTENNIAL     MOCLDY    75  50  41 S14G22    30.29R
BROOMFIELD     NOT AVBL
FORT COLLINS   PTCLDY    81  48  32 E12       30.22R
LONGMONT       PTCLDY    82  50  33 S7        30.24R
$$

COZ041-046-047-076>085-087-088-300300-
...PIKES PEAK/PALMER DIVIDE AND SOUTHERN FOOTHILLS...

CITY           SKY/WX    TMP DP  RH WIND       PRES   REMARKS
COLO. SPRINGS  LGT RAIN  73  49  42 SW9       30.37S
A. F. ACADEMY  CLOUDY    69  51  53 S9        30.36F
ELLICOTT       CLOUDY   N/A N/A N/A SE9       30.35F
FALCON         CLOUDY    68  48  48 S8        30.42R
FORT CARSON    CLOUDY    74  51  43 E6        30.34R
LIMON          PTCLDY    69  47  45 SE10      30.31S
MONUMENT HILL  NOT AVBL
TRINIDAD       LGT RAIN  62  56  80 W12       30.36S
$$

COZ042>045-048>051-090-091-300300-
...NORTHEAST COLORADO...

CITY           SKY/WX    TMP DP  RH WIND       PRES   REMARKS
GREELEY ARPT   PTCLDY    79  48  34 SE8       30.22S
AKRON          CLEAR     72  43  35 SE12      30.28R
BURLINGTON     CLEAR     72  50  45 SE9       30.28R
WRAY           CLEAR     73  41  31 SE8       30.25R
STERLING       CLEAR     77  45  31 SE9       30.22R
HOLYOKE        CLEAR     73  52  46 SE8       30.25R
FORT MORGAN    CLEAR     75  46  35 SE8       30.25S
$$

COZ086-089-092>099-300300-
...SOUTHEAST COLORADO...

CITY           SKY/WX    TMP DP  RH WIND       PRES   REMARKS
PUEBLO         CLOUDY    82  55  39 S14       30.24R
LA JUNTA       CLOUDY    83  51  33 SE9       30.24R
LAMAR          PTCLDY    78  57  48 SE9       30.22R
SPRINGFIELD      N/A     73  60  63 E10       30.27R
$$



USA.gov is the U.S. government's official web portal to all federal, state and local government web resources and services.